Regional Weather Roundup
Issued by NWS

Home | Current Version | Previous Version | Text Only | Print | Product List | Glossary Off
Versions: 1 2 3 4 5 6 7 8 9 10 11 12 13 14 15 16 17 18 19 20 21 22 23 24 25 26 27 28 29 30 31 32 33 34 35 36 37 38 39 40 41 42 43 44 45 46 47 48 49

000
ASUS43 KDMX 030607
RWRIA

WEATHER ROUNDUP FOR IOWA
NATIONAL WEATHER SERVICE DES MOINES IA
100 AM CDT THU SEP 03 2015

NOTE: "FAIR" INDICATES FEW OR NO CLOUDS BELOW 12,000 FEET WITH NO
SIGNIFICANT WEATHER AND/OR OBSTRUCTIONS TO VISIBILITY.

* - THESE STATIONS ARE NOT NWS STATIONS...THUS NOT UNDER NWS
QUALITY CONTROL.  THEY ALSO DO NOT REPORT WEATHER SUCH
AS PRECIPITATION OR FOG.

IAZ001>003-012>014-020>022-031>034-043>046-030700-
   NORTHWEST IOWA

CITY           SKY/WX    TMP DP  RH WIND       PRES   REMARKS
CARROLL *      PTCLDY    72  72 100 S8        29.89S
CHEROKEE *       N/A     71  71  99 S5        29.87S
DENISON *      CLEAR     75  70  83 S12       29.87S
LE MARS *      CLEAR     73  72  94 S7        29.86S
ORANGE CITY *  CLEAR     73  72  94 SE6       29.86F
SHELDON *      CLEAR     72  70  94 SE7       29.86S
SIOUX CITY       N/A     72  68  87 SE8       29.84S
6HR MIN TEMP:  72; 6HR MAX TEMP:  84;

SPENCER          N/A     71  68  90 SE5       29.88S FOG
6HR MIN TEMP:  71; 6HR MAX TEMP:  81;

STORM LAKE *   CLEAR     72  70  94 S7        29.90S
$$

IAZ055>058-069>071-079>083-090>094-030700-
   SOUTHWEST IOWA

CITY           SKY/WX    TMP DP  RH WIND       PRES   REMARKS
ATLANTIC *     CLEAR     73  70  88 S8        29.90F
AUDUBON *      CLEAR     73  70  88 S6        29.92S
CLARINDA *     CLEAR     73  70  88 S6        29.93S
COUNCIL BLFS *   N/A     73  70  88 S9        29.89S
CRESTON *      CLEAR     72  70  94 S9        29.95S
LAMONI           N/A     74  69  85 S8        29.94S
6HR MIN TEMP:  74; 6HR MAX TEMP:  83;

RED OAK *      MOCLDY    75  70  83 S5        29.91S
SHENANDOAH *   CLEAR     73  70  88 S6        29.90S
$$

IAZ047>049-059>061-072>074-084-030700-
   CENTRAL IOWA

CITY           SKY/WX    TMP DP  RH WIND       PRES   REMARKS
AMES             N/A     69  68  96 SE3       29.90F FOG
6HR MIN TEMP:  69; 6HR MAX TEMP:  81;

ANKENY *       CLEAR     73  72  94 S5        29.91S
CHARITON *     PTCLDY    73  70  88 S6        29.94S
DES MOINES       N/A     75  69  81 S8        29.91S
6HR MIN TEMP:  75; 6HR MAX TEMP:  83;

GRINNELL*        N/A     72  68  88 S6        29.94S
KNOXVILLE *    CLEAR     75  68  78 S7        29.91F
MARSHALLTOWN     N/A     73  69  87 S6        29.92S
6HR MIN TEMP:  72; 6HR MAX TEMP:  82;

PELLA *          N/A     73  72  94 S5        29.93F
PERRY *          N/A     72  70  93 CALM      29.90S
$$

IAZ004>006-015-016-023>025-035-036-030700-
   NORTH CENTRAL IOWA

CITY           SKY/WX    TMP DP  RH WIND       PRES   REMARKS
ALGONA *       CLEAR     73  70  88 S9        29.90S
CLARION *        N/A     72  68  88 S7        29.91S
ESTHERVILLE      N/A     69  68  96 S5        29.89S
6HR MIN TEMP:  69; 6HR MAX TEMP:  80;

FORT DODGE *     N/A     73  66  78 S7        29.90S
MASON CITY       N/A     68  67  96 S6        29.93S
6HR MIN TEMP:  68; 6HR MAX TEMP:  81;

FOREST CITY *  CLEAR     68  68 100 CALM      29.92S
IOWA FALLS *     N/A     70  68  94 E3        29.93S FOG
$$

IAZ007>011-017>019-026>030-037>042-050>054-066-030700-
   NORTHEAST IOWA

CITY           SKY/WX    TMP DP  RH WIND       PRES   REMARKS
CEDAR RAPIDS     N/A     72  70  93 S7        29.93F
6HR MIN TEMP:  71; 6HR MAX TEMP:  79;

CHARLES CITY * CLEAR     70  70 100 S6        29.93S
CLINTON *        N/A     70  66  88 CALM      29.98S
DECORAH *      MOCLDY    72  70  94 S5        29.93F
DUBUQUE          N/A     69  67  93 SW6       29.96F
6HR MIN TEMP:  69; 6HR MAX TEMP:  78;

MONTICELLO *   PTCLDY    70  68  94 CALM      29.95S
OELWEIN *        N/A     70  68  94 SE6       29.94F
WATERLOO         N/A     72  68  87 S3        29.91S
6HR MIN TEMP:  72; 6HR MAX TEMP:  82;

$$

IAZ064-065-067-068-078-030700-
   EAST CENTRAL IOWA

CITY           SKY/WX    TMP DP  RH WIND       PRES   REMARKS
DAVENPORT        N/A     74  67  78 S6        29.96S
6HR MIN TEMP:  73; 6HR MAX TEMP:  82;

IOWA CITY        N/A     70  68  93 S5        29.95S
6HR MIN TEMP:  70; 6HR MAX TEMP:  81;

MT. PLEASANT * MOCLDY    74  66  75 S5        29.96S
MUSCATINE *    CLEAR     73  68  83 CALM      29.95F
QUAD CITIES    CLOUDY    76  68  76 S7        29.95S
6HR MIN TEMP:  75; 6HR MAX TEMP:  83;

$$

IAZ062-063-075>077-085>089-095>099-030700-
   SOUTHEAST IOWA

CITY           SKY/WX    TMP DP  RH WIND       PRES   REMARKS
BURLINGTON     MOCLDY    74  70  87 S5        29.96S
6HR MIN TEMP:  73; 6HR MAX TEMP:  83;

FAIRFIELD *    CLEAR     73  68  83 S6        29.95F
FORT MADISON * MOCLDY    73  70  88 S6        29.97S
KEOKUK *       CLOUDY    77  70  78 S5        29.96S
OSKALOOSA *      N/A     71  68  90 S6        29.94F
CENTERVILLE *  CLEAR     72  68  88 S6        29.97S
OTTUMWA          N/A     73  70  90 S8        29.93S
6HR MIN TEMP:  73; 6HR MAX TEMP:  79;

WASHINGTON *     N/A    N/A N/A N/A MISG        N/A
$$

ABBREVIATIONS USED IN REMARKS
   TC - TEMPERATURES IN CELSIUS
  WCI - WIND CHILL INDEX
   HX - HEAT INDEX
  VSB - VISIBILITY
$$




USA.gov is the U.S. government's official web portal to all federal, state and local government web resources and services.